When you browse on this site, cookies collect data to enhance your experience and personalize the content and advertising you see.
Visit our Privacy Policy to learn more. By continuing to use the site, you agree to this use of cookies and data.
  • In Austria
  • List of Countries
  • For 7 days
  • Water Temperature
  • Satellite Maps
  • Weather Map
  • News
  • Weather Widgets
  • user-avatar
    Login

    Hourly Weather Zapadnyy

    Today, 25 May, Saturday

    Time Temperature Precipitation Wind Pressure Humidity
    00:00 +15°C° 0 mm 1 mps 743 mmHg 93%
    01:00 +15°C° 0 mm 1 mps 743 mmHg 94%
    02:00 +14°C° 0 mm 1 mps 743 mmHg 94%
    03:00 +14°C° 0 mm 1 mps 743 mmHg 94%
    04:00 +14°C° 0 mm 1 mps 743 mmHg 95%
    05:00 +14°C° 0 mm 2 mps 743 mmHg 95%
    06:00 +16°C° 0 mm 2 mps 743 mmHg 90%
    07:00 +17°C° 0 mm 2 mps 743 mmHg 85%
    08:00 +19°C° 0 mm 2 mps 743 mmHg 79%
    09:00 +20°C° 0 mm 3 mps 743 mmHg 73%
    10:00 +21°C° 0 mm 3 mps 743 mmHg 66%
    11:00 +23°C° 0 mm 4 mps 743 mmHg 60%
    12:00 +23°C° 0.4 mm 4 mps 743 mmHg 60%
    13:00 +23°C° 0.4 mm 4 mps 743 mmHg 60%
    14:00 +23°C° 0.4 mm 4 mps 743 mmHg 60%
    15:00 +23°C° 0.1 mm 4 mps 743 mmHg 59%
    16:00 +23°C° 0.1 mm 4 mps 743 mmHg 57%
    17:00 +22°C° 0.1 mm 4 mps 743 mmHg 56%
    18:00 +21°C° 0 mm 3 mps 743 mmHg 61%
    19:00 +19°C° 0 mm 3 mps 743 mmHg 67%
    20:00 +17°C° 0 mm 2 mps 743 mmHg 72%
    21:00 +16°C° 0 mm 2 mps 743 mmHg 74%
    22:00 +15°C° 0 mm 2 mps 743 mmHg 77%
    23:00 +14°C° 0 mm 2 mps 744 mmHg 79%

    Tomorrow, 26 May, Sunday

    Time Temperature Precipitation Wind Pressure Humidity
    00:00 +14°C° 0 mm 2 mps 744 mmHg 82%
    01:00 +13°C° 0 mm 2 mps 744 mmHg 86%
    02:00 +13°C° 0 mm 2 mps 744 mmHg 89%
    03:00 +13°C° 0 mm 2 mps 744 mmHg 91%
    04:00 +12°C° 0 mm 2 mps 745 mmHg 92%
    05:00 +12°C° 0 mm 2 mps 745 mmHg 94%
    06:00 +13°C° 0 mm 2 mps 745 mmHg 85%
    07:00 +15°C° 0 mm 2 mps 745 mmHg 76%
    08:00 +16°C° 0 mm 3 mps 745 mmHg 67%
    09:00 +17°C° 0 mm 3 mps 745 mmHg 64%
    10:00 +18°C° 0 mm 4 mps 745 mmHg 60%
    11:00 +19°C° 0 mm 4 mps 745 mmHg 56%
    12:00 +19°C° 0 mm 4 mps 745 mmHg 56%
    13:00 +20°C° 0 mm 5 mps 745 mmHg 56%
    14:00 +20°C° 0 mm 5 mps 745 mmHg 56%
    15:00 +20°C° 0 mm 5 mps 745 mmHg 56%
    16:00 +20°C° 0 mm 5 mps 745 mmHg 56%
    17:00 +20°C° 0 mm 5 mps 745 mmHg 57%
    18:00 +19°C° 0 mm 4 mps 745 mmHg 63%
    19:00 +18°C° 0 mm 3 mps 745 mmHg 70%
    20:00 +16°C° 0 mm 2 mps 745 mmHg 77%
    21:00 +15°C° 0 mm 2 mps 745 mmHg 81%
    22:00 +14°C° 0 mm 2 mps 745 mmHg 85%
    23:00 +13°C° 0 mm 2 mps 746 mmHg 88%

    Day after tomorrow, 27 May, Monday

    Time Temperature Precipitation Wind Pressure Humidity
    00:00 +13°C° 0 mm 2 mps 746 mmHg 91%
    01:00 +13°C° 0 mm 2 mps 746 mmHg 93%
    02:00 +12°C° 0 mm 2 mps 746 mmHg 95%
    03:00 +12°C° 0 mm 2 mps 746 mmHg 95%
    04:00 +12°C° 0 mm 2 mps 746 mmHg 95%
    05:00 +13°C° 0 mm 2 mps 746 mmHg 95%
    06:00 +15°C° 0 mm 2 mps 746 mmHg 85%
    07:00 +17°C° 0 mm 3 mps 746 mmHg 76%
    08:00 +19°C° 0 mm 3 mps 746 mmHg 66%
    09:00 +21°C° 0 mm 4 mps 746 mmHg 61%
    10:00 +22°C° 0 mm 4 mps 746 mmHg 55%
    11:00 +25°C° 0 mm 5 mps 746 mmHg 50%
    12:00 +25°C° 0 mm 5 mps 746 mmHg 49%
    13:00 +26°C° 0 mm 4 mps 746 mmHg 47%
    14:00 +27°C° 0 mm 4 mps 746 mmHg 46%
    15:00 +27°C° 0 mm 4 mps 746 mmHg 49%
    16:00 +26°C° 0 mm 4 mps 745 mmHg 51%
    17:00 +26°C° 0 mm 4 mps 745 mmHg 54%
    18:00 +23°C° 0.2 mm 4 mps 745 mmHg 64%
    19:00 +21°C° 0.2 mm 3 mps 745 mmHg 74%
    20:00 +20°C° 0.2 mm 2 mps 746 mmHg 84%
    21:00 +19°C° 0.1 mm 2 mps 746 mmHg 86%
    22:00 +19°C° 0.1 mm 2 mps 746 mmHg 89%
    23:00 +18°C° 0.1 mm 2 mps 746 mmHg 92%

    28 May, Tuesday

    Time Temperature Precipitation Wind Pressure Humidity
    00:00 +18°C° 0 mm 2 mps 746 mmHg 92%
    01:00 +17°C° 0 mm 2 mps 746 mmHg 92%
    02:00 +17°C° 0 mm 2 mps 746 mmHg 92%
    03:00 +17°C° 0 mm 2 mps 746 mmHg 92%
    04:00 +17°C° 0 mm 2 mps 746 mmHg 93%
    05:00 +17°C° 0 mm 2 mps 746 mmHg 93%
    06:00 +18°C° 0 mm 2 mps 746 mmHg 88%
    07:00 +20°C° 0 mm 2 mps 746 mmHg 83%
    08:00 +21°C° 0 mm 3 mps 746 mmHg 78%
    09:00 +24°C° 0.3 mm 3 mps 745 mmHg 73%
    10:00 +25°C° 0.3 mm 4 mps 745 mmHg 68%
    11:00 +27°C° 0.3 mm 4 mps 745 mmHg 64%
    12:00 +27°C° 0.7 mm 4 mps 744 mmHg 66%
    13:00 +27°C° 0.7 mm 5 mps 744 mmHg 68%
    14:00 +26°C° 0.7 mm 5 mps 744 mmHg 69%
    15:00 +27°C° 0.4 mm 5 mps 743 mmHg 67%
    16:00 +27°C° 0.4 mm 5 mps 743 mmHg 64%
    17:00 +27°C° 0.4 mm 5 mps 743 mmHg 61%
    18:00 +25°C° 0 mm 4 mps 743 mmHg 65%
    19:00 +23°C° 0 mm 4 mps 743 mmHg 70%
    20:00 +21°C° 0 mm 3 mps 743 mmHg 74%
    21:00 +21°C° 0 mm 4 mps 743 mmHg 74%
    22:00 +21°C° 0 mm 4 mps 743 mmHg 74%
    23:00 +20°C° 0 mm 4 mps 743 mmHg 74%

    29 May, Wednesday

    Time Temperature Precipitation Wind Pressure Humidity
    00:00 +20°C° 0 mm 4 mps 743 mmHg 75%
    01:00 +19°C° 0 mm 4 mps 743 mmHg 75%
    02:00 +18°C° 0 mm 4 mps 743 mmHg 75%
    03:00 +18°C° 0 mm 4 mps 743 mmHg 76%
    04:00 +17°C° 0 mm 4 mps 743 mmHg 76%
    05:00 +17°C° 0 mm 4 mps 742 mmHg 76%
    06:00 +18°C° 0 mm 4 mps 743 mmHg 73%
    07:00 +19°C° 0 mm 5 mps 743 mmHg 70%
    08:00 +20°C° 0 mm 5 mps 743 mmHg 67%
    09:00 +22°C° 0 mm 5 mps 743 mmHg 64%
    10:00 +23°C° 0 mm 5 mps 743 mmHg 62%
    11:00 +26°C° 0 mm 5 mps 743 mmHg 59%
    12:00 +27°C° 0.1 mm 6 mps 743 mmHg 57%
    13:00 +28°C° 0.1 mm 6 mps 742 mmHg 56%
    14:00 +29°C° 0.1 mm 7 mps 742 mmHg 54%
    15:00 +27°C° 1 mm 6 mps 742 mmHg 61%
    16:00 +26°C° 1 mm 5 mps 742 mmHg 69%
    17:00 +25°C° 1 mm 4 mps 742 mmHg 77%
    18:00 +22°C° 0.3 mm 3 mps 743 mmHg 81%
    19:00 +21°C° 0.3 mm 3 mps 743 mmHg 85%
    20:00 +20°C° 0.3 mm 2 mps 743 mmHg 90%
    21:00 +19°C° 0 mm 2 mps 743 mmHg 91%
    22:00 +19°C° 0 mm 2 mps 744 mmHg 93%
    23:00 +18°C° 0 mm 2 mps 744 mmHg 95%

    30 May, Thursday

    Time Temperature Precipitation Wind Pressure Humidity
    00:00 +17°C° 0 mm 2 mps 744 mmHg 96%
    01:00 +17°C° 0 mm 2 mps 745 mmHg 97%
    02:00 +17°C° 0 mm 2 mps 745 mmHg 98%
    03:00 +17°C° 0 mm 3 mps 746 mmHg 97%
    04:00 +17°C° 0 mm 3 mps 746 mmHg 96%
    05:00 +17°C° 0 mm 3 mps 747 mmHg 95%
    06:00 +16°C° 0 mm 3 mps 747 mmHg 94%
    07:00 +16°C° 0 mm 3 mps 748 mmHg 93%
    08:00 +16°C° 0 mm 3 mps 748 mmHg 93%
    09:00 +17°C° 0 mm 3 mps 749 mmHg 89%
    10:00 +18°C° 0 mm 3 mps 749 mmHg 85%
    11:00 +18°C° 0 mm 3 mps 749 mmHg 81%
    12:00 +19°C° 0 mm 3 mps 750 mmHg 77%
    13:00 +19°C° 0 mm 3 mps 750 mmHg 74%
    14:00 +20°C° 0 mm 3 mps 750 mmHg 70%
    15:00 +20°C° 0 mm 3 mps 750 mmHg 71%
    16:00 +20°C° 0 mm 3 mps 750 mmHg 72%
    17:00 +20°C° 0 mm 3 mps 750 mmHg 73%
    18:00 +19°C° 0 mm 3 mps 750 mmHg 78%
    19:00 +17°C° 0 mm 2 mps 751 mmHg 83%
    20:00 +16°C° 0 mm 2 mps 751 mmHg 88%
    21:00 +16°C° 0 mm 2 mps 751 mmHg 90%
    22:00 +15°C° 0 mm 2 mps 751 mmHg 93%
    23:00 +14°C° 0 mm 1 mps 751 mmHg 95%
    Show more